CW2014 Weather Reports


time (UTC)temp
C
wind
direction
speed
KPH
gust
KPH
rain 1hr
cm
rain 24hr
cm
rain mn
cm
humidity
%
barometer
mb
20260506143525 18 0 0.0 1.6 0.00 0.00 0.00 41 1013.8
20260506143039 18 0 0.0 3.2 0.00 0.00 0.00 41 1013.8
20260506142525 17 0 0.0 3.2 0.00 0.00 0.00 43 1013.8
20260506142025 17 0 0.0 3.2 0.00 0.00 0.00 44 1013.7
20260506141540 17 101 0.0 3.2 0.00 0.00 0.00 45 1013.7
20260506141027 16 0 0.0 1.6 0.00 0.00 0.00 46 1013.5
20260506140525 16 0 0.0 3.2 0.00 0.00 0.00 46 1013.5
20260506140039 16 0 0.0 4.8 0.00 0.00 0.00 47 1013.5
20260506135525 15 155 0.0 8.0 0.00 0.00 0.00 47 1013.3
20260506135024 15 154 0.0 8.0 0.00 0.00 0.00 48 1013.4
20260506134538 15 154 3.2 6.4 0.00 0.00 0.00 48 1013.4
20260506134024 15 155 0.0 3.2 0.00 0.00 0.00 50 1013.3
20260506133527 15 0 0.0 3.2 0.00 0.00 0.00 49 1013.3
20260506133041 14 0 0.0 3.2 0.00 0.00 0.00 50 1013.3
20260506132525 14 0 0.0 3.2 0.00 0.00 0.00 50 1013.2
20260506132024 13 0 0.0 3.2 0.00 0.00 0.00 51 1013.2
20260506131604 13 0 0.0 4.8 0.00 0.00 0.00 51 1013.2
20260506131025 13 0 1.6 4.8 0.00 0.00 0.00 51 1013.2
20260506130527 13 0 0.0 8.0 0.00 0.00 0.00 52 1013.1
20260506130043 13 154 1.6 8.0 0.00 0.00 0.00 52 1013.0
20260506125525 12 154 3.2 8.0 0.00 0.00 0.00 52 1013.0
20260506125025 12 154 3.2 8.0 0.00 0.00 0.00 53 1012.8
20260506124538 12 160 4.8 8.0 0.00 0.00 0.00 53 1012.8
20260506124024 12 146 3.2 6.4 0.00 0.00 0.00 53 1012.8
20260506123526 12 146 1.6 6.4 0.00 0.00 0.00 53 1012.7
20260506123038 12 146 1.6 8.0 0.00 0.00 0.00 53 1012.7
20260506122524 12 146 1.6 9.7 0.00 0.00 0.00 53 1012.4
20260506122025 12 146 3.2 9.7 0.00 0.00 0.00 52 1012.5
20260506121543 12 165 3.2 8.0 0.00 0.00 0.00 53 1012.4
20260506121025 12 157 3.2 8.0 0.00 0.00 0.00 52 1012.3
20260506120527 12 148 4.8 8.0 0.00 0.00 0.00 52 1012.3
20260506120040 13 142 1.6 8.0 0.00 0.00 0.00 53 1012.3
20260506115525 13 142 3.2 8.0 0.00 0.00 0.00 52 1012.2
20260506115024 13 159 3.2 6.4 0.00 0.00 0.00 53 1012.2
20260506114539 13 157 1.6 4.8 0.00 0.00 0.00 53 1012.2
20260506114026 13 157 1.6 4.8 0.00 0.00 0.00 53 1012.2
20260506113525 13 157 1.6 4.8 0.00 0.00 0.00 54 1012.2
20260506113039 13 157 1.6 4.8 0.00 0.00 0.00 53 1012.2
20260506112524 13 0 0.0 3.2 0.00 0.00 0.00 54 1012.1
20260506112024 13 157 1.6 3.2 0.00 0.00 0.00 53 1012.1
20260506111538 13 0 1.6 3.2 0.00 0.00 0.00 53 1012.1
20260506111028 13 157 0.0 4.8 0.00 0.00 0.00 53 1012.1
20260506110527 13 157 1.6 4.8 0.00 0.00 0.00 52 1012.1
20260506110042 13 0 0.0 4.8 0.00 0.00 0.00 52 1012.0
20260506105524 13 157 0.0 8.0 0.00 0.00 0.00 53 1012.2
20260506105027 13 157 1.6 11.3 0.00 0.00 0.00 53 1012.1
20260506104546 13 157 4.8 11.3 0.00 0.00 0.00 54 1012.0
20260506104022 13 152 0.0 4.8 0.00 0.00 0.00 55 1012.0
20260506103524 13 0 0.0 8.0 0.00 0.00 0.00 56 1012.0
20260506103041 13 152 1.6 8.0 0.00 0.00 0.00 55 1011.9
20260506102525 13 152 3.2 6.4 0.00 0.00 0.00 56 1011.9
20260506102025 13 0 0.0 8.0 0.00 0.00 0.00 56 1011.9
20260506101539 14 194 1.6 8.0 0.00 0.00 0.00 55 1011.9
20260506101024 14 171 4.8 8.0 0.00 0.00 0.00 55 1011.8
20260506100525 13 119 1.6 4.8 0.00 0.00 0.00 55 1011.8
20260506100040 14 119 1.6 4.8 0.00 0.00 0.00 55 1011.8
20260506095524 14 0 0.0 4.8 0.00 0.00 0.00 54 1011.9
20260506095024 14 0 1.6 4.8 0.00 0.00 0.00 54 1011.8
20260506094554 14 0 1.6 4.8 0.00 0.00 0.00 54 1011.8
20260506094028 14 119 1.6 4.8 0.00 0.00 0.00 54 1011.8
20260506093524 14 119 1.6 4.8 0.00 0.00 0.00 54 1011.7
20260506093040 14 0 0.0 4.8 0.00 0.00 0.00 54 1011.7
20260506092525 14 119 1.6 4.8 0.00 0.00 0.00 53 1011.6
20260506092028 14 0 0.0 3.2 0.00 0.00 0.00 53 1011.6
20260506091540 14 0 0.0 4.8 0.00 0.00 0.00 53 1011.5
20260506091025 15 119 0.0 4.8 0.00 0.00 0.00 53 1011.5
20260506090524 15 119 3.2 4.8 0.00 0.00 0.00 53 1011.5
20260506090039 15 0 0.0 4.8 0.00 0.00 0.00 54 1011.5
20260506085524 15 119 1.6 4.8 0.00 0.13 0.00 53 1011.4
20260506085024 15 0 0.0 3.2 0.00 0.13 0.00 53 1011.4
20260506084542 15 0 0.0 3.2 0.00 0.13 0.00 53 1011.4
20260506084024 15 119 0.0 3.2 0.00 0.13 0.00 52 1011.4
20260506083524 15 0 0.0 3.2 0.00 0.13 0.00 52 1011.4
20260506083042 15 119 0.0 1.6 0.00 0.13 0.00 52 1011.3
20260506082527 15 0 0.0 1.6 0.00 0.13 0.00 52 1011.4
20260506082027 15 0 0.0 0.0 0.00 0.13 0.00 51 1011.4
20260506081540 15 0 0.0 3.2 0.00 0.13 0.00 51 1011.5
20260506081025 15 0 0.0 3.2 0.00 0.13 0.00 50 1011.5
20260506080525 15 0 0.0 1.6 0.00 0.13 0.00 49 1011.4
20260506073525 16 0 0.0 3.2 0.00 0.18 0.00 46 1011.5
20260506073040 16 0 0.0 3.2 0.00 0.18 0.00 46 1011.5
20260506072529 16 119 1.6 3.2 0.00 0.18 0.00 45 1011.5
20260506072024 16 119 0.0 3.2 0.00 0.18 0.00 45 1011.5
20260506071547 16 119 1.6 3.2 0.00 0.18 0.00 46 1011.3
20260506071024 16 0 0.0 3.2 0.00 0.18 0.00 46 1011.3
20260506070524 16 119 1.6 4.8 0.00 0.18 0.00 45 1011.3
20260506062025 17 225 1.6 4.8 0.00 0.18 0.18 41 1011.1
20260506061539 17 252 0.0 3.2 0.00 0.18 0.18 41 1011.1
20260506061027 18 252 1.6 3.2 0.00 0.18 0.18 41 1011.0
20260506060527 18 276 0.0 3.2 0.00 0.18 0.18 40 1010.9
20260506051026 19 285 1.6 6.4 0.00 0.18 0.18 35 1010.8
20260506050525 19 279 3.2 6.4 0.00 0.18 0.18 34 1010.7
20260506045025 20 282 3.2 6.4 0.00 0.18 0.18 33 1010.4
20260506044542 20 252 1.6 6.4 0.00 0.18 0.18 33 1010.4
20260506044025 20 276 1.6 6.4 0.00 0.18 0.18 32 1010.4
20260506043525 20 280 3.2 6.4 0.00 0.18 0.18 32 1010.4
20260506043040 20 290 3.2 6.4 0.00 0.18 0.18 32 1010.3
20260506042525 20 281 3.2 6.4 0.00 0.18 0.18 32 1010.4
20260506042025 20 288 3.2 6.4 0.00 0.18 0.18 32 1010.2
20260506041541 20 278 1.6 6.4 0.00 0.18 0.18 31 1010.2
20260506041025 20 289 3.2 6.4 0.00 0.18 0.18 31 1010.2
20260506040524 20 288 1.6 4.8 0.00 0.18 0.18 31 1010.1
20260506040041 20 288 1.6 9.7 0.00 0.18 0.18 30 1010.0
20260506035525 21 312 1.6 9.7 0.00 0.18 0.18 30 1009.9
20260506035023 21 277 3.2 11.3 0.00 0.18 0.18 30 1009.8
20260506034539 21 275 3.2 14.5 0.00 0.18 0.18 30 1009.8
20260506034025 21 296 4.8 14.5 0.00 0.18 0.18 29 1009.7
20260506033525 21 296 6.4 12.9 0.00 0.18 0.18 29 1009.7
20260506033043 21 310 4.8 14.5 0.00 0.18 0.18 29 1009.5
20260506032524 21 0 6.4 14.5 0.00 0.18 0.18 29 1009.5
20260506032025 21 299 4.8 9.7 0.00 0.18 0.18 29 1009.5
20260506031546 21 299 4.8 16.1 0.00 0.18 0.18 29 1009.3
20260506031025 21 300 4.8 16.1 0.00 0.18 0.18 29 1009.3
20260506030524 21 302 8.0 16.1 0.00 0.18 0.18 28 1009.1
20260506030040 21 290 4.8 16.1 0.00 0.18 0.18 28 1009.1
20260506025526 21 285 8.0 16.1 0.00 0.18 0.18 28 1009.0
20260506025028 21 285 6.4 14.5 0.00 0.18 0.18 28 1009.0
20260506024547 21 317 6.4 17.7 0.00 0.18 0.18 28 1008.9
20260506024024 22 278 8.0 17.7 0.00 0.18 0.18 27 1008.8
20260506023524 22 275 4.8 16.1 0.00 0.18 0.18 27 1008.8
20260506023044 22 281 6.4 16.1 0.00 0.18 0.18 27 1008.8
20260506022530 22 273 6.4 19.3 0.00 0.18 0.18 27 1008.7
20260506022025 22 272 9.7 19.3 0.00 0.18 0.18 26 1008.5
20260506021541 22 283 9.7 19.3 0.00 0.18 0.18 26 1008.5
20260506021026 22 288 11.3 20.9 0.00 0.18 0.18 26 1008.5
20260506020525 22 290 9.7 20.9 0.00 0.18 0.18 27 1008.3
20260506020039 22 309 8.0 17.7 0.00 0.18 0.18 26 1008.2
20260506015527 22 311 9.7 17.7 0.00 0.18 0.18 26 1008.2
20260506015025 23 284 8.0 17.7 0.00 0.18 0.18 26 1008.1
20260506014542 23 239 6.4 22.5 0.00 0.18 0.18 26 1008.2
20260506014024 23 263 8.0 22.5 0.00 0.18 0.18 26 1008.2
20260506013527 23 248 6.4 22.5 0.00 0.18 0.18 26 1008.1
20260506013038 23 286 9.7 22.5 0.00 0.18 0.18 26 1008.0
20260506012524 23 307 8.0 22.5 0.00 0.18 0.18 27 1008.0
20260506012028 23 276 8.0 22.5 0.00 0.18 0.18 27 1008.0
20260506011544 23 309 9.7 24.1 0.00 0.18 0.18 27 1008.0
20260506011025 23 323 11.3 24.1 0.00 0.18 0.18 27 1007.9
20260506010525 23 342 3.2 19.3 0.00 0.18 0.18 28 1007.9
20260506010041 23 286 9.7 22.5 0.00 0.18 0.18 27 1007.9
20260506005525 23 319 9.7 22.5 0.00 0.18 0.18 27 1007.9
20260506005024 23 270 8.0 20.9 0.00 0.18 0.18 27 1007.7
20260506004540 23 317 11.3 20.9 0.00 0.18 0.18 27 1007.7
20260506004028 23 240 8.0 20.9 0.00 0.18 0.18 27 1007.7
20260506003526 23 290 11.3 20.9 0.00 0.18 0.18 27 1007.7
20260506003040 24 275 8.0 20.9 0.00 0.18 0.18 26 1007.7
20260506002525 24 268 8.0 20.9 0.00 0.18 0.18 27 1007.7
20260506002025 24 264 8.0 25.7 0.00 0.18 0.18 27 1007.6
20260506001549 23 304 9.7 25.7 0.00 0.18 0.18 27 1007.6
20260506001024 23 304 14.5 27.4 0.00 0.18 0.18 27 1007.6
20260506000525 23 302 9.7 27.4 0.00 0.18 0.18 27 1007.5
20260506000042 24 305 11.3 27.4 0.00 0.18 0.18 26 1007.5
20260505235525 24 270 8.0 24.1 0.00 0.18 0.18 26 1007.4
20260505235025 24 277 12.9 25.7 0.00 0.18 0.18 27 1007.6
20260505234544 24 294 11.3 25.7 0.00 0.18 0.18 27 1007.4
20260505234025 24 290 14.5 24.1 0.00 0.18 0.18 26 1007.4
20260505233525 24 292 6.4 27.4 0.00 0.18 0.18 27 1007.3
20260505233038 25 305 9.7 27.4 0.00 0.18 0.18 27 1007.4
20260505232524 25 258 12.9 27.4 0.00 0.18 0.18 27 1007.4
20260505232024 25 300 8.0 27.4 0.00 0.18 0.18 26 1007.3
20260505231550 25 234 9.7 27.4 0.00 0.18 0.18 27 1007.3
20260505231025 25 261 12.9 27.4 0.00 0.18 0.18 27 1007.4
20260505230525 25 346 11.3 25.7 0.00 0.18 0.18 26 1007.3
20260505230054 25 286 11.3 25.7 0.00 0.18 0.18 27 1007.4
20260505225526 24 235 8.0 25.7 0.00 0.18 0.18 27 1007.3
20260505225025 25 321 9.7 25.7 0.00 0.18 0.18 27 1007.5
20260505224540 25 257 9.7 24.1 0.00 0.18 0.18 28 1007.6
20260505224025 25 232 9.7 22.5 0.00 0.18 0.18 27 1007.4
20260505223524 25 299 11.3 22.5 0.00 0.18 0.18 27 1007.6
20260505223039 25 261 4.8 25.7 0.00 0.18 0.18 26 1007.5
20260505222525 25 321 11.3 25.7 0.00 0.18 0.18 27 1007.7
20260505222025 25 246 8.0 24.1 0.00 0.18 0.18 28 1007.7
20260505221539 25 265 8.0 22.5 0.00 0.18 0.18 27 1007.7
20260505221030 25 290 12.9 22.5 0.00 0.18 0.18 27 1008.0
20260505220524 25 288 4.8 29.0 0.00 0.18 0.18 28 1007.8
20260505220046 25 244 11.3 29.0 0.00 0.18 0.18 27 1008.0
20260505215529 25 287 9.7 25.7 0.00 0.18 0.18 28 1008.0
20260505215025 25 268 9.7 25.7 0.00 0.18 0.18 27 1007.9
20260505214544 25 257 9.7 25.7 0.00 0.18 0.18 28 1008.1
20260505214025 25 288 9.7 30.6 0.00 0.18 0.18 29 1008.1
20260505213524 25 231 12.9 30.6 0.00 0.18 0.18 29 1008.2
20260505213051 25 242 4.8 25.7 0.00 0.18 0.18 31 1008.1
20260505212529 25 316 8.0 25.7 0.00 0.18 0.18 30 1008.2
20260505212025 24 244 6.4 27.4 0.00 0.18 0.18 31 1008.2
20260505211539 24 228 8.0 27.4 0.00 0.18 0.18 31 1008.5
20260505211025 25 205 9.7 22.5 0.00 0.18 0.18 31 1008.5
20260505210524 25 266 8.0 22.5 0.00 0.18 0.18 32 1008.6
20260505210038 24 265 11.3 22.5 0.00 0.18 0.18 33 1008.6
20260505205525 24 306 8.0 19.3 0.00 0.18 0.18 33 1008.6
20260505205028 24 278 3.2 22.5 0.00 0.18 0.18 34 1008.6
20260505204539 24 270 6.4 24.1 0.00 0.18 0.18 34 1008.7
20260505204024 24 284 12.9 24.1 0.00 0.18 0.18 33 1008.8
20260505203526 24 223 9.7 24.1 0.00 0.18 0.18 34 1008.8
20260505203042 24 324 12.9 24.1 0.00 0.18 0.18 33 1008.8
20260505202524 24 261 8.0 22.5 0.00 0.18 0.18 34 1008.8
20260505202023 24 241 9.7 22.5 0.00 0.18 0.18 36 1008.8
20260505201543 23 317 9.7 22.5 0.00 0.18 0.18 38 1008.8
20260505201025 23 304 9.7 24.1 0.00 0.18 0.18 38 1008.8
20260505200527 23 296 9.7 24.1 0.00 0.18 0.18 38 1009.0
20260505200043 23 296 6.4 22.5 0.00 0.18 0.18 39 1008.9
20260505195528 23 262 4.8 20.9 0.00 0.18 0.18 39 1009.0
20260505195024 23 302 11.3 24.1 0.00 0.18 0.18 39 1009.1
20260505194539 23 247 6.4 24.1 0.00 0.18 0.18 40 1009.1
20260505194025 23 261 6.4 17.7 0.00 0.18 0.18 41 1009.1
20260505193525 23 223 6.4 20.9 0.00 0.18 0.18 40 1009.1
20260505193039 23 255 9.7 24.1 0.00 0.18 0.18 40 1009.2
20260505192528 22 272 12.9 24.1 0.00 0.18 0.18 41 1009.3
20260505192025 22 240 4.8 17.7 0.00 0.18 0.18 41 1009.4
20260505191606 22 236 6.4 17.7 0.00 0.18 0.18 41 1009.5
20260505191027 23 257 6.4 17.7 0.00 0.18 0.18 41 1009.6
20260505190525 23 247 4.8 17.7 0.00 0.18 0.18 40 1009.5
20260505190042 22 254 3.2 27.4 0.00 0.18 0.18 41 1009.6
20260505185524 23 256 11.3 27.4 0.00 0.18 0.18 41 1009.7
20260505185025 23 275 9.7 20.9 0.00 0.18 0.18 42 1009.7
20260505184539 22 352 9.7 20.9 0.00 0.18 0.18 42 1009.7
20260505184025 23 301 8.0 19.3 0.00 0.18 0.18 42 1009.7
20260505183524 23 225 8.0 17.7 0.00 0.18 0.18 41 1009.7
20260505183040 22 285 9.7 22.5 0.00 0.18 0.18 42 1009.8
20260505182525 22 281 12.9 22.5 0.00 0.18 0.18 43 1009.9
20260505182024 22 246 6.4 17.7 0.00 0.18 0.18 43 1009.8
20260505181535 22 199 4.8 19.3 0.00 0.18 0.18 45 1009.8
20260505181026 22 294 8.0 19.3 0.00 0.18 0.18 45 1009.7
20260505180525 22 224 9.7 22.5 0.00 0.18 0.18 43 1009.8
20260505180059 22 224 11.3 22.5 0.00 0.18 0.18 44 1009.9
20260505175525 22 266 9.7 22.5 0.00 0.18 0.18 45 1009.7
20260505175026 22 275 6.4 17.7 0.00 0.18 0.18 46 1009.8
20260505174551 22 194 3.2 17.7 0.00 0.18 0.18 48 1009.9
20260505174025 21 251 6.4 14.5 0.00 0.18 0.18 49 1009.9
20260505173527 21 167 6.4 14.5 0.00 0.18 0.18 50 1009.9
20260505173041 21 184 4.8 17.7 0.00 0.18 0.18 50 1009.9
20260505172525 21 242 4.8 17.7 0.00 0.18 0.18 51 1009.9
20260505172025 21 234 6.4 16.1 0.00 0.18 0.18 52 1009.9
20260505171539 21 232 6.4 17.7 0.00 0.18 0.18 52 1009.9
20260505171025 21 267 6.4 17.7 0.00 0.18 0.18 53 1009.9
20260505170525 21 210 4.8 12.9 0.00 0.18 0.18 54 1009.9
20260505170039 20 226 3.2 19.3 0.00 0.18 0.18 54 1009.9
20260505165525 21 249 8.0 19.3 0.00 0.18 0.18 54 1009.9
20260505165025 21 217 4.8 16.1 0.00 0.18 0.18 54 1009.9
20260505164549 21 233 6.4 14.5 0.00 0.18 0.18 54 1009.9
20260505164029 21 196 8.0 19.3 0.00 0.18 0.18 54 1009.9
20260505163525 21 208 4.8 19.3 0.00 0.18 0.18 54 1009.8
20260505163040 21 277 9.7 19.3 0.00 0.18 0.18 53 1009.8
20260505162525 21 323 6.4 17.7 0.00 0.18 0.18 54 1009.9
20260505162025 21 248 4.8 16.1 0.00 0.18 0.18 54 1009.8
20260505161540 21 268 6.4 17.7 0.00 0.18 0.18 55 1009.8
20260505161025 20 263 8.0 19.3 0.00 0.18 0.18 56 1009.9
20260505160525 20 180 11.3 19.3 0.00 0.18 0.18 56 1010.0
20260505153045 20 0 3.2 12.9 0.00 0.18 0.18 60 1009.7
20260505152525 20 252 4.8 12.9 0.00 0.18 0.18 61 1009.7
20260505152025 20 209 3.2 12.9 0.00 0.18 0.18 62 1009.7
20260505151543 20 238 3.2 12.9 0.00 0.18 0.18 64 1009.7
20260505151026 19 200 4.8 12.9 0.00 0.18 0.18 65 1009.7
20260505150525 19 192 4.8 12.9 0.00 0.18 0.18 66 1009.7